Regional Weather Roundup
Issued by NWS

Home | Current Version | Previous Version | Graphics & Text | Print | Product List | Glossary On
Versions: 1 2 3 4 5 6 7 8 9 10 11 12 13 14 15 16 17 18 19 20 21 22 23 24 25 26 27 28 29 30 31 32 33 34 35 36 37 38 39 40 41 42 43 44 45 46 47 48 49 50
000
ASUS43 KDTX 210610
RWRMI
MICHIGAN HOURLY REGIONAL WEATHER ROUNDUP
NATIONAL WEATHER SERVICE DETROIT/PONTIAC MI
100 AM EST SUN DEC 21 2014

NOTE: "FAIR" INDICATES FEW OR NO CLOUDS BELOW 12,000 FEET WITH NO
SIGNIFICANT WEATHER AND/OR OBSTRUCTION TO VISIBILITY.

MIZ047>049-052>055-059>063-066>070-074>076-081>083-210700-
SOUTHEAST LOWER MICHIGAN

CITY           SKY/WX    TMP DP  RH WIND       PRES   REMARKS
ADRIAN         PTCLDY    22  20  92 CALM      30.28F FOG
6HR MIN TEMP:  22; 6HR MAX TEMP:  29;

ALMA           CLOUDY    28  25  87 CALM      30.26S
6HR MIN TEMP:  26; 6HR MAX TEMP:  28;

ANN ARBOR      MOCLDY    21  19  92 CALM      30.27S
BAD AXE        CLEAR     16  16  98 CALM      30.27S
6HR MIN TEMP:  16; 6HR MAX TEMP:  27;

DETROIT CITY   CLOUDY    31  22  69 CALM      30.28S
6HR MIN TEMP:  31; 6HR MAX TEMP:  32;

DETROIT        CLOUDY    30  24  78 CALM      30.29S
6HR MIN TEMP:  29; 6HR MAX TEMP:  30;

FLINT          CLEAR     21  17  84 CALM      30.27S
6HR MIN TEMP:  20; 6HR MAX TEMP:  31;

GROSSE ILE     CLOUDY    30  25  80 CALM      30.27S
HILLSDALE      CLOUDY    26  25  95 CALM      30.25R FOG
6HR MIN TEMP:  21; 6HR MAX TEMP:  27;

HOWELL         CLOUDY    23  21  93 CALM      30.26R
6HR MIN TEMP:  22; 6HR MAX TEMP:  28;


CITY           SKY/WX    TMP DP  RH WIND       PRES   REMARKS
JACKSON        CLOUDY    26  22  84 CALM      30.26S
6HR MIN TEMP:  23; 6HR MAX TEMP:  28;

LAMBERTVILLE   MOCLDY    30  27  86 CALM      30.28S
LANSING        CLOUDY    28  22  78 S5        30.27S
6HR MIN TEMP:  25; 6HR MAX TEMP:  28;

LAPEER         NOT AVBL
MASON          CLOUDY    27  23  85 CALM      30.26S
MONROE         CLOUDY    30  27  86 CALM      30.26F
MT. CLEMENS    CLOUDY    30  22  74 SW3       30.26S
6HR MIN TEMP:  28; 6HR MAX TEMP:  30;

PONTIAC        CLOUDY    26  20  77 CALM      30.25S
6HR MIN TEMP:  25; 6HR MAX TEMP:  28;

PORT HOPE        N/A     22  18  85 SW3       30.26S
6HR MIN TEMP:  22; 6HR MAX TEMP:  28;

PORT HURON     CLOUDY    23  21  93 CALM      30.28S
TRI CITIES     MOCLDY    25  21  85 CALM      30.28S
6HR MIN TEMP:  24; 6HR MAX TEMP:  28;

YPSILANTI      CLOUDY    31  23  72 CALM      30.28S
6HR MIN TEMP:  31; 6HR MAX TEMP:  33;

$$
MIZ043>046-050>051-056>058-064>065-071>073-077>080-210700-
SOUTHWEST LOWER MICHIGAN

CITY           SKY/WX    TMP DP  RH WIND       PRES   REMARKS
BATTLE CREEK   CLOUDY    31  27  85 S5        30.25F FOG
6HR MIN TEMP:  30; 6HR MAX TEMP:  31;

BENTON HARBOR  CLOUDY    30  26  85 S5        30.26F
6HR MIN TEMP:  30; 6HR MAX TEMP:  32;

BIG RAPIDS     CLOUDY    29  29 100 CALM      30.22F FOG
6HR MIN TEMP:  29; 6HR MAX TEMP:  30;

COLDWATER      CLOUDY    29  28  93 MISG      30.26S FOG
6HR MIN TEMP:  29; 6HR MAX TEMP:  30;

HOLLAND        CLOUDY    33  27  78 S8        30.25F
6HR MIN TEMP:  31; 6HR MAX TEMP:  33; 6HR PCP: TRACE;

GRAND RAPIDS   CLOUDY    30  27  88 S7        30.25S FOG
6HR MIN TEMP:  30; 6HR MAX TEMP:  30; 6HR PCP: TRACE;

KALAMAZOO      CLOUDY    30  27  88 S6        30.26S FOG
6HR MIN TEMP:  30; 6HR MAX TEMP:  30;

MARSHALL       CLOUDY    28  25  87 CALM      30.25S
MUSKEGON       CLOUDY    31  28  89 SE5       30.24F FOG
6HR MIN TEMP:  30; 6HR MAX TEMP:  31; 6HR PCP: TRACE;

$$
MIZ016>042-210700-
NORTHERN LOWER MICHIGAN

CITY           SKY/WX    TMP DP  RH WIND       PRES   REMARKS
ALPENA         CLOUDY    23  21  92 CALM      30.26F
6HR MIN TEMP:  22; 6HR MAX TEMP:  26;

BEAVER ISLAND  CLOUDY    31  26  81 SE6       30.22F
6HR MIN TEMP:  29; 6HR MAX TEMP:  31;

BELLAIRE       CLOUDY    27  24  89 CALM      30.25S
6HR MIN TEMP:  27; 6HR MAX TEMP:  29;

CADILLAC       CLOUDY    26  22  87 CALM      30.20S
CHARLEVOIX     CLOUDY    27  22  82 S8        30.26F
6HR MIN TEMP:  27; 6HR MAX TEMP:  28;

FRANKFORT      CLOUDY    29  26  87 CALM      30.23S
GAYLORD        CLOUDY    19  17  92 CALM      30.21S
6HR MIN TEMP:  17; 6HR MAX TEMP:  23;

GRAYLING       CLOUDY    20  19  96 CALM      30.23F
6HR MIN TEMP:  14; 6HR MAX TEMP:  20;

HARBOR SPRINGS CLOUDY    23  19  85 CALM      30.24S
HOUGHTON LAKE  CLOUDY    21  18  88 CALM      30.23F
6HR MIN TEMP:  16; 6HR MAX TEMP:  21;

MANISTEE       CLOUDY    28  25  86 SE5       30.24S
OSCODA         CLEAR     15  14  95 CALM      30.26S
PELLSTON       CLOUDY    22  19  89 SE5       30.24F
6HR MIN TEMP:  14; 6HR MAX TEMP:  22;

TRAVERSE CITY  CLOUDY    28  22  78 CALM      30.23F
6HR MIN TEMP:  28; 6HR MAX TEMP:  30;

$$
MIZ007>008-015-210700-
EASTERN UPPER MICHIGAN

CITY           SKY/WX    TMP DP  RH WIND       PRES   REMARKS
KINROSS        CLOUDY    25  23  93 SE6       30.24R
6HR MIN TEMP:  21; 6HR MAX TEMP:  25;

MACKINAC ISLAN CLOUDY    27  22  79 SE8       30.24S
6HR MIN TEMP:  23; 6HR MAX TEMP:  27;

NEWBERRY       CLOUDY    26  23  89 S5        30.21S
6HR MIN TEMP:  22; 6HR MAX TEMP:  26;

S. S. MARIE    CLOUDY    24  19  81 E5        30.22F
6HR MIN TEMP:  23; 6HR MAX TEMP:  24;

$$
MIZ004>006-011>014-085-210700-
CENTRAL UPPER MICHIGAN

CITY           SKY/WX    TMP DP  RH WIND       PRES   REMARKS
MANISTIQUE     CLOUDY    26  25  97 CALM      30.20F
6HR MIN TEMP:  22; 6HR MAX TEMP:  27;

ESCANABA       CLOUDY    27  23  86 CALM      30.20S
6HR MIN TEMP:  27; 6HR MAX TEMP:  28;

MENOMINEE      CLOUDY    28  23  80 CALM      30.20S
6HR MIN TEMP:  28; 6HR MAX TEMP:  28;

SAWYER-GWINN   CLOUDY    26  23  89 S8        30.15S
$$
MIZ001>003-009>011-084-210700-
WESTERN UPPER MICHIGAN

CITY           SKY/WX    TMP DP  RH WIND       PRES   REMARKS
IRON MOUNTAIN  CLOUDY    27  23  85 S5        30.15S
6HR MIN TEMP:  26; 6HR MAX TEMP:  27;

HOUGHTON       CLOUDY    29  25  85 S6        30.11F
6HR MIN TEMP:  27; 6HR MAX TEMP:  29;

COPPER HARBOR    N/A     31  26  82 SW6       30.13F
6HR MIN TEMP:  29; 6HR MAX TEMP:  31;

IRONWOOD       CLOUDY    30  27  86 S13       30.07S
6HR MIN TEMP:  28; 6HR MAX TEMP:  30;

$$

ABBREVIATIONS USED IN REMARKS
   TC - TEMPERATURE IN CELSIUS
  WCI - WIND CHILL INDEX
   HX - HEAT INDEX
  VSB - VISIBILITY




USA.gov is the U.S. government's official web portal to all federal, state and local government web resources and services.